Regional Weather Roundup
Issued by NWS

Home | Current Version | Previous Version | Text Only | Print | Product List | Glossary On
Versions: 1 2 3 4 5 6 7 8 9 10 11 12 13 14 15 16 17 18 19 20 21 22 23 24 25 26 27 28 29 30 31 32 33 34 35 36 37 38 39 40 41 42 43 44 45 46 47 48 49 50
000
ASUS45 KBOU 270707
RWRCO

WEATHER ROUNDUP FOR COLORADO
NATIONAL WEATHER SERVICE DENVER/BOULDER CO
100 AM MDT WED AUG 27 2014

NOTE: "FAIR" INDICATES FEW OR NO CLOUDS BELOW 12000 FEET WITH NO
SIGNIFICANT WEATHER AND/OR OBSTRUCTIONS TO VISIBILITY.

COZ001>005-013-030-031-270800-
...NORTHWEST COLORADO...

CITY           SKY/WX    TMP DP  RH WIND       PRES   REMARKS
CRAIG          CLOUDY    57  50  77 W6        30.26S
HAYDEN         CLOUDY    55  46  71 CALM      30.28R
MEEKER         LGT RAIN  56  52  86 S3        30.30R
MOUNT WERNER   NOT AVBL
STEAMBOAT SPGS CLOUDY    52  49  90 CALM      30.29S
WALDEN         CLOUDY    50  43  76 SE5       30.36S
$$

COZ006>008-011-270800-
...WEST CENTRAL VALLEYS...

CITY           SKY/WX    TMP DP  RH WIND       PRES   REMARKS
GRAND JUNCTION LGT RAIN  58  56  93 SE8       30.23F
MONTROSE       LGT RAIN  57  54  89 SE9       30.29F
EAGLE          CLOUDY    55  54  94 CALM      30.32F
RIFLE          RAIN      56  54  93 W6        30.27S FOG
DELTA          RAIN      59  57  94 E8        30.25F
NUCLA          MOCLDY    55  52  88 E3        30.32F
$$

COZ017>023-064>068-270800-
...SOUTHWEST COLORADO...

CITY           SKY/WX    TMP DP  RH WIND       PRES   REMARKS
DURANGO        CLOUDY    53  52  96 SE6       30.31F
CORTEZ         CLEAR     54  53  97 CALM      30.28S
PAGOSA SPRINGS CLOUDY    54  54  99 E6        30.38F
TELLURIDE      CLOUDY    46  46 100 E5        30.42F
WOLF CREEK PAS LGT RAIN  37  37 100 SW15      30.59S VSB 3/4
$$

COZ009-010-012-014-032>034-037-058>063-270800-
...CENTRAL COLORADO...

CITY           SKY/WX    TMP DP  RH WIND       PRES   REMARKS
ASPEN          CLOUDY    51  50  96 CALM      30.34F
BUENA VISTA    CLOUDY    53  48  84 W6        30.37F
COPPER MTN     LGT RAIN  45  37  76 N3        30.59F
BERTHOUD PASS  CLOUDY    37  36  93 MISG      30.64F
COTTONWOOD PAS CLOUDY    50  46  87 CALM      30.47F
GUNNISON       CLOUDY    54  48  82 CALM      30.37F
KREMMLING      CLOUDY    54  50  87 CALM      30.35F
LEADVILLE      CLOUDY    45  44  97 CALM      30.46F
MONARCH PASS   FOG       41  41 100 E9        30.68F VSB<1/4
SALIDA         CLOUDY    57  53  86 W3        30.42F
SUNLIGHT       DRIZZLE   45  43  93 CALM      30.53S
WILKERSON PASS NOT AVBL
$$

COZ069>075-270800-
...SAN LUIS VALLEY/SANGRE DE CRISTO MOUNTAINS...

CITY           SKY/WX    TMP DP  RH WIND       PRES   REMARKS
ALAMOSA        CLOUDY    52  50  93 E3        30.34F
LA VETA PASS   NOT AVBL
SAGUACHE       CLOUDY    54  50  87 CALM      30.38R
$$

COZ035-036-038>040-270800-
...NORTHERN COLORADO FRONT RANGE...

CITY           SKY/WX    TMP DP  RH WIND       PRES   REMARKS
DENVER INTL AP CLOUDY    62  54  74 S10       30.22R
DMNS CITY PARK   N/A     63  54  73 S5G10     30.20F
AURORA         MOCLDY    63  53  71 S15       30.24S
FRONT RANGE AP LGT RAIN  63  55  77 S9        30.23S
ERIE MUNI ARPT CLOUDY    64  52  64 CALM      30.19R
BOULDER MUN AP CLOUDY    63  54  72 CALM      30.19R
CENTENNIAL     LGT RAIN  60  54  80 S13       30.25S
BROOMFIELD     CLOUDY    63  50  63 S5        30.22S
FORT COLLINS   CLOUDY    63  54  72 CALM      30.19S
LONGMONT       CLOUDY    64  57  80 CALM      30.20S
$$

COZ041-046-047-076>085-087-088-270800-
...PIKES PEAK/PALMER DIVIDE AND SOUTHERN FOOTHILLS...

CITY           SKY/WX    TMP DP  RH WIND       PRES   REMARKS
COLO. SPRINGS  CLOUDY    61  55  81 NE6       30.28F
A. F. ACADEMY  CLOUDY    57  56  96 N5        30.30F
ELLICOTT       CLOUDY    60  55  83 CALM      30.27F
FALCON         CLOUDY    58  55  92 CALM      30.32F
FORT CARSON    MOCLDY    59  54  84 E6        30.25F
LIMON          MOCLDY    60  57  89 CALM      30.24S
MONUMENT HILL  CLOUDY    54  52  94 S3        30.32F
TRINIDAD       CLOUDY    64  56  75 SW7       30.24F
$$

COZ042>045-048>051-090-091-270800-
...NORTHEAST COLORADO...

CITY           SKY/WX    TMP DP  RH WIND       PRES   REMARKS
GREELEY ARPT   CLOUDY    63  54  72 CALM      30.18S
AKRON          MOCLDY    66  60  81 S10G25    30.18S
BURLINGTON     CLOUDY    63  60  90 S10       30.18S
WRAY             N/A     67  61  79 NE3       30.16S
STERLING       MOCLDY    70  66  88 CALM      30.13S
HOLYOKE        DRIZZLE   66  61  82 S9        30.17R
FORT MORGAN    MOCLDY    63  60  90 E6        30.16S
$$

COZ086-089-092>099-270800-
...SOUTHEAST COLORADO...

CITY           SKY/WX    TMP DP  RH WIND       PRES   REMARKS
PUEBLO         CLOUDY    66  59  78 E6        30.18F
LA JUNTA       CLOUDY    65  63  93 SE3       30.16F
LAMAR          MOCLDY    66  64  93 E3        30.14F
SPRINGFIELD      N/A     62  62 100 S14       30.18F
$$


USA.gov is the U.S. government's official web portal to all federal, state and local government web resources and services.